PEREGRINE (58751 NORAD) Tracking and Keplerian Element Data

This shows tracking and keplerian element data for the satellite.

Feedback or suggestion? Click here.




ElementValue
Catalog58751
NamePEREGRINE
Epoch Orbit1
Epoch Day20.54375252
Epoch Year2024
RAAN21.2554
Inclination28.9006
Eccentricity0.9502498
Argument of Perigee261.2625
Mean Anonmoly359.1123
Mean Motion0.07069907
Decay Rate-0.0004835
L11 58751U 24006A 24020.54375252 -.00048350 00000+0 00000+0 0 9998
L22 58751 28.9006 21.2554 9502498 261.2625 359.1123 0.07069907 16



Live tracking and technical data element details for PEREGRINE (NORAD 58751). PEREGRINE can be tracked NOW for your location showing map with azimuth and elevation plus other details from your city location.







IsCatalogInMostPopularTable: catalog: 58751, numindb: 31
Update: records affected: 1



GetName: 58751 PEREGRINE

Hit Count: updated at: Wed, 17 Apr 2024 02:57:23 GMT